| time (UTC) | temp F | wind direction | speed MPH | gust MPH | rain 1hr in | rain 24hr in | rain mn in | humidity % | barometer mb |
| 20260507091500 | 39 | 304 | 2.0 | 2.0 | 0.00 | 0.00 | 0.00 | 78 | 1014.6 |
| 20260507090003 | 40 | 302 | 2.0 | 2.0 | 0.00 | 0.00 | 0.00 | 77 | 1014.7 |
| 20260507084459 | 39 | 315 | 1.0 | 2.0 | 0.00 | 0.00 | 0.00 | 80 | 1014.8 |
| 20260507083000 | 40 | 314 | 1.0 | 2.0 | 0.00 | 0.00 | 0.00 | 79 | 1014.6 |
| 20260507081500 | 39 | 314 | 1.0 | 2.0 | 0.00 | 0.00 | 0.00 | 80 | 1014.7 |
| 20260507080003 | 39 | 313 | 1.0 | 2.0 | 0.00 | 0.00 | 0.00 | 81 | 1014.6 |
| 20260507074501 | 40 | 314 | 1.0 | 2.0 | 0.00 | 0.00 | 0.00 | 79 | 1014.7 |
| 20260507072959 | 40 | 314 | 1.0 | 2.0 | 0.00 | 0.00 | 0.00 | 80 | 1014.7 |
| 20260507071500 | 40 | 307 | 1.0 | 2.0 | 0.00 | 0.00 | 0.00 | 80 | 1014.8 |
| 20260507070009 | 41 | 301 | 1.0 | 2.0 | 0.00 | 0.00 | 0.00 | 75 | 1014.8 |
| 20260507060004 | 42 | 319 | 2.0 | 3.0 | 0.00 | 0.01 | 0.00 | 77 | 1015.1 |
| 20260507053001 | 44 | 304 | 2.0 | 3.0 | 0.00 | 0.06 | 0.00 | 75 | 1015.2 |
| 20260507051500 | 44 | 305 | 2.0 | 4.0 | 0.00 | 0.06 | 0.00 | 74 | 1015.0 |
| 20260507050004 | 44 | 304 | 2.0 | 4.0 | 0.00 | 0.06 | 0.00 | 74 | 1015.0 |
| 20260507044502 | 44 | 302 | 2.0 | 4.0 | 0.00 | 0.12 | 0.00 | 75 | 1015.0 |
| 20260507043002 | 45 | 302 | 2.0 | 4.0 | 0.00 | 0.12 | 0.00 | 73 | 1014.9 |
| 20260507041502 | 46 | 301 | 2.0 | 4.0 | 0.00 | 0.12 | 0.00 | 72 | 1014.9 |
| 20260507040006 | 46 | 304 | 1.0 | 3.0 | 0.00 | 0.12 | 0.00 | 72 | 1014.9 |
| 20260507034504 | 47 | 300 | 2.0 | 3.0 | 0.00 | 0.25 | 0.12 | 71 | 1014.7 |
| 20260507033002 | 47 | 295 | 2.0 | 3.0 | 0.00 | 0.25 | 0.12 | 70 | 1014.7 |
| 20260507031501 | 48 | 285 | 2.0 | 3.0 | 0.00 | 0.25 | 0.12 | 70 | 1014.7 |
| 20260507024502 | 48 | 287 | 1.0 | 3.0 | 0.00 | 0.43 | 0.12 | 70 | 1014.4 |
| 20260507021503 | 48 | 300 | 1.0 | 2.0 | 0.00 | 0.43 | 0.12 | 71 | 1014.3 |
| 20260507020006 | 49 | 300 | 1.0 | 2.0 | 0.00 | 0.43 | 0.12 | 70 | 1014.3 |
| 20260507014502 | 49 | 305 | 1.0 | 2.0 | 0.00 | 0.53 | 0.12 | 71 | 1014.3 |
| 20260507013002 | 49 | 304 | 1.0 | 2.0 | 0.00 | 0.53 | 0.12 | 71 | 1014.2 |
| 20260507011503 | 50 | 304 | 1.0 | 2.0 | 0.00 | 0.53 | 0.12 | 68 | 1014.1 |
| 20260507010006 | 50 | 302 | 2.0 | 4.0 | 0.00 | 0.53 | 0.12 | 69 | 1013.9 |
| 20260507004503 | 51 | 300 | 2.0 | 3.0 | 0.00 | 0.60 | 0.12 | 66 | 1013.8 |
| 20260507001502 | 53 | 309 | 3.0 | 5.0 | 0.00 | 0.60 | 0.12 | 63 | 1013.3 |
| 20260507000005 | 52 | 293 | 2.0 | 4.0 | 0.00 | 0.60 | 0.12 | 67 | 1013.2 |
| 20260506234502 | 53 | 321 | 2.0 | 6.0 | 0.00 | 0.67 | 0.12 | 63 | 1013.3 |
| 20260506233002 | 53 | 304 | 3.0 | 7.0 | 0.00 | 0.67 | 0.12 | 63 | 1013.4 |
| 20260506230007 | 54 | 302 | 5.0 | 8.0 | 0.00 | 0.67 | 0.12 | 61 | 1013.4 |
| 20260506220006 | 55 | 297 | 5.0 | 10.0 | 0.00 | 0.73 | 0.12 | 53 | 1013.4 |
| 20260506214502 | 56 | 329 | 6.0 | 12.0 | 0.00 | 0.78 | 0.12 | 51 | 1013.2 |
| 20260506213000 | 56 | 308 | 7.0 | 12.0 | 0.00 | 0.78 | 0.12 | 61 | 1013.2 |
| 20260506210004 | 56 | 305 | 7.0 | 15.0 | 0.00 | 0.78 | 0.12 | 60 | 1013.2 |
| 20260506204501 | 55 | 292 | 6.0 | 11.0 | 0.00 | 0.79 | 0.12 | 59 | 1013.2 |
| 20260506203001 | 55 | 307 | 5.0 | 8.0 | 0.00 | 0.79 | 0.12 | 62 | 1013.3 |
| 20260506200004 | 54 | 309 | 5.0 | 8.0 | 0.00 | 0.79 | 0.12 | 58 | 1013.3 |
| 20260506194502 | 54 | 304 | 4.0 | 8.0 | 0.00 | 0.80 | 0.12 | 62 | 1013.4 |
| 20260506193000 | 54 | 301 | 4.0 | 8.0 | 0.00 | 0.80 | 0.12 | 62 | 1013.5 |
| 20260506191501 | 54 | 274 | 4.0 | 8.0 | 0.00 | 0.80 | 0.12 | 63 | 1013.5 |
| 20260506184500 | 54 | 302 | 3.0 | 5.0 | 0.00 | 0.90 | 0.12 | 69 | 1013.4 |
| 20260506183001 | 54 | 293 | 2.0 | 7.0 | 0.00 | 0.90 | 0.12 | 69 | 1013.5 |
| 20260506181501 | 53 | 281 | 4.0 | 7.0 | 0.00 | 0.90 | 0.12 | 67 | 1013.5 |
| 20260506180004 | 53 | 283 | 3.0 | 7.0 | 0.00 | 0.90 | 0.12 | 66 | 1013.5 |
| 20260506173001 | 54 | 234 | 2.0 | 5.0 | 0.00 | 1.01 | 0.12 | 66 | 1013.6 |
| 20260506171500 | 54 | 149 | 1.0 | 4.0 | 0.00 | 1.01 | 0.12 | 64 | 1013.6 |
| 20260506170003 | 54 | 250 | 1.0 | 3.0 | 0.00 | 1.01 | 0.12 | 65 | 1013.3 |
| 20260506164501 | 54 | 124 | 0.0 | 3.0 | 0.00 | 1.06 | 0.12 | 65 | 1013.5 |
| 20260506163001 | 53 | 304 | 0.0 | 0.0 | 0.00 | 1.06 | 0.12 | 66 | 1013.4 |
| 20260506161501 | 53 | 304 | 0.0 | 0.0 | 0.00 | 1.06 | 0.12 | 68 | 1013.3 |
| 20260506154501 | 53 | 304 | 0.0 | 2.0 | 0.00 | 1.07 | 0.12 | 69 | 1013.5 |
| 20260506153001 | 53 | 40 | 0.0 | 2.0 | 0.00 | 1.07 | 0.12 | 69 | 1013.3 |
| 20260506151502 | 53 | 333 | 0.0 | 2.0 | 0.00 | 1.07 | 0.12 | 70 | 1013.2 |
| 20260506150005 | 52 | 298 | 0.0 | 3.0 | 0.00 | 1.07 | 0.12 | 68 | 1013.4 |
| 20260506144501 | 52 | 34 | 0.0 | 2.0 | 0.00 | 1.13 | 0.12 | 71 | 1013.3 |
| 20260506143001 | 51 | 285 | 1.0 | 3.0 | 0.00 | 1.13 | 0.12 | 73 | 1013.1 |
| 20260506140005 | 50 | 269 | 1.0 | 4.0 | 0.00 | 1.13 | 0.12 | 77 | 1012.9 |
| 20260506134500 | 49 | 340 | 0.0 | 2.0 | 0.00 | 1.13 | 0.12 | 78 | 1012.6 |
| 20260506133001 | 49 | 340 | 0.0 | 2.0 | 0.00 | 1.13 | 0.12 | 82 | 1012.4 |
| 20260506131502 | 48 | 311 | 0.0 | 2.0 | 0.00 | 1.13 | 0.12 | 84 | 1012.6 |
| 20260506130007 | 47 | 307 | 1.0 | 3.0 | 0.00 | 1.13 | 0.12 | 86 | 1012.2 |
| 20260506123000 | 46 | 309 | 0.0 | 2.0 | 0.00 | 1.13 | 0.12 | 91 | 1012.0 |
| 20260506121501 | 46 | 297 | 0.0 | 2.0 | 0.00 | 1.13 | 0.12 | 93 | 1011.9 |
| 20260506114501 | 45 | 203 | 0.0 | 0.0 | 0.00 | 1.13 | 0.12 | 93 | 1011.3 |
| 20260506113000 | 44 | 203 | 0.0 | 0.0 | 0.00 | 1.13 | 0.12 | 93 | 1011.2 |
| 20260506111501 | 44 | 203 | 0.0 | 0.0 | 0.00 | 1.13 | 0.12 | 92 | 1010.7 |
| 20260506104459 | 45 | 203 | 0.0 | 0.0 | 0.00 | 1.13 | 0.12 | 93 | 1010.3 |
| 20260506103000 | 45 | 203 | 0.0 | 0.0 | 0.00 | 1.13 | 0.12 | 93 | 1010.2 |
| 20260506101500 | 45 | 203 | 0.0 | 1.0 | 0.00 | 1.13 | 0.12 | 93 | 1009.8 |
| 20260506100002 | 45 | 203 | 0.0 | 2.0 | 0.00 | 1.13 | 0.12 | 93 | 1010.1 |
| 20260506094500 | 46 | 203 | 0.0 | 2.0 | 0.00 | 1.13 | 0.12 | 93 | 1009.9 |
| 20260506093000 | 46 | 203 | 0.0 | 0.0 | 0.00 | 1.13 | 0.12 | 93 | 1009.7 |